Juneau, AK

3:36 PM AKDT on July 27, 2017 (GMT -0800)
Juneau International

Weather History for PAJN - January, 2014

Change the Weather History Date:

Sunday, January 19, 2014

  Actual Average Record
Temperature  
Mean Temperature 38 °F 28 °F  
Max Temperature 41 °F 33 °F 51 °F (1981)
Min Temperature 35 °F 24 °F -7 °F (1952)
Degree Days  
Heating Degree Days 27 37  
Month to date heating degree days 523 703  
Since 1 July heating degree days 4148 4424  
Moisture  
Dew Point 35 °F    
Average Humidity 86    
Maximum Humidity 92    
Minimum Humidity 79    
Precipitation  
Precipitation 0.09 in 0.17 in 1.17 in (1992)
Month to date precipitation 8.31 3.29  
Year to date precipitation 8.31 3.29  
Snow  
Snow 0.00 in 1.00 in 8.10 in (2011)
Month to date snowfall 4.7 16.3  
Since 1 July snowfall 64.0 45.8  
Snow Depth 0.00 in    
Sea Level Pressure  
Sea Level Pressure 30.19 in    
Wind  
Wind Speed 9 mph (East)    
Max Wind Speed 16 mph    
Max Gust Speed 19 mph    
Visibility 10 miles    
Events Rain    
T = Trace of Precipitation, MM = Missing Value Source: NWS Daily Summary

Daily Weather History Graph

Daily Weather History Graph

Search for Another Location

Airport or City:

Trip Planner

Search our weather history database for the weather conditions in past years. The results will help you decide how hot, cold, wet, or windy it might be!

Date:

Astronomy

Jan. 19, 2014 Rise Set
Actual Time 8:27 AM AKST 3:51 PM AKST
Civil Twilight 7:39 AM AKST 4:38 PM AKST
Nautical Twilight 6:49 AM AKST 5:29 PM AKST
Astronomical Twilight 6:02 AM AKST 6:16 PM AKST
Moon 8:38 PM AKST (1/19) 9:04 AM AKST (1/19)
Length of Visible Light 8h 59m
Length of Day
7h 23m
Waning Gibbous, 88% of the Moon is Illuminated
Jan 19
Waning Gibbous
Jan 23
Last Quarter
Jan 30
New
Feb 6
First Quarter
Feb 14
Full

Hourly Weather History & Observations

Time (AKST) Temp. Windchill Dew Point Humidity Pressure Visibility Wind Dir Wind Speed Gust Speed Precip Events Conditions
12:53 AM 39.0 °F 34.0 °F 36.0 °F 89% 30.09 in 10.0 mi East 6.9 mph - 0.00 in   Overcast
1:53 AM 37.0 °F 32.4 °F 36.0 °F 96% 30.12 in 10.0 mi East 5.8 mph - N/A   Mostly Cloudy
2:53 AM 39.0 °F 33.4 °F 35.1 °F 86% 30.13 in 10.0 mi ENE 8.1 mph - N/A   Overcast
3:53 AM 37.0 °F 32.4 °F 35.1 °F 93% 30.14 in 10.0 mi ENE 5.8 mph - N/A   Overcast
4:53 AM 37.0 °F 32.4 °F 36.0 °F 96% 30.14 in 10.0 mi ENE 5.8 mph - N/A   Overcast
5:53 AM 37.9 °F 31.5 °F 35.1 °F 89% 30.14 in 10.0 mi ENE 9.2 mph - N/A   Overcast
6:53 AM 37.9 °F 31.5 °F 35.1 °F 89% 30.16 in 10.0 mi East 9.2 mph - N/A   Overcast
7:53 AM 37.9 °F 32.7 °F 35.1 °F 89% 30.18 in 10.0 mi ENE 6.9 mph - N/A   Overcast
8:53 AM 37.0 °F 31.6 °F 35.1 °F 93% 30.19 in 10.0 mi ENE 6.9 mph - N/A   Mostly Cloudy
9:53 AM 37.0 °F 30.4 °F 35.1 °F 93% 30.20 in 10.0 mi East 9.2 mph - N/A   Mostly Cloudy
10:21 AM 37.9 °F 31.5 °F 35.1 °F 89% 30.21 in 10.0 mi East 9.2 mph - N/A   Mostly Cloudy
10:53 AM 39.0 °F 33.4 °F 36.0 °F 89% 30.22 in 10.0 mi ENE 8.1 mph - N/A   Mostly Cloudy
11:01 AM 39.0 °F 33.4 °F 36.0 °F 89% 30.21 in 10.0 mi East 8.1 mph - N/A   Scattered Clouds
11:53 AM 39.9 °F 31.8 °F 36.0 °F 86% 30.22 in 10.0 mi ESE 15.0 mph - 0.00 in   Mostly Cloudy
12:53 PM 41.0 °F 34.3 °F 36.0 °F 82% 30.22 in 10.0 mi East 11.5 mph - N/A   Mostly Cloudy
1:53 PM 39.9 °F 33.4 °F 37.0 °F 89% 30.22 in 10.0 mi East 10.4 mph - N/A   Mostly Cloudy
2:53 PM 39.9 °F 33.4 °F 36.0 °F 86% 30.21 in 10.0 mi East 10.4 mph - N/A   Mostly Cloudy
3:53 PM 39.9 °F 32.5 °F 35.1 °F 83% 30.21 in 10.0 mi ESE 12.7 mph - N/A   Overcast
4:53 PM 37.0 °F 30.4 °F 34.0 °F 89% 30.20 in 10.0 mi East 9.2 mph - N/A   Overcast
5:53 PM 37.9 °F 30.5 °F 35.1 °F 89% 30.20 in 10.0 mi East 11.5 mph - N/A   Overcast
6:53 PM 37.9 °F 30.5 °F 34.0 °F 86% 30.21 in 10.0 mi East 11.5 mph - N/A   Overcast
7:53 PM 39.0 °F 33.4 °F 34.0 °F 82% 30.20 in 10.0 mi East 8.1 mph - N/A   Overcast
8:53 PM 39.0 °F 33.4 °F 34.0 °F 82% 30.23 in 9.0 mi East 8.1 mph - 0.00 in Rain Light Rain
9:53 PM 37.9 °F 30.5 °F 35.1 °F 89% 30.24 in 9.0 mi East 11.5 mph - 0.03 in Rain Light Rain
10:53 PM 37.9 °F 30.5 °F 35.1 °F 89% 30.23 in 8.0 mi East 11.5 mph - 0.03 in Rain Light Rain
11:53 PM 37.0 °F 28.9 °F 36.0 °F 96% 30.24 in 10.0 mi East 12.7 mph - 0.03 in Rain Light Rain